GW4576 Weather Reports


time (UTC)temp
F
wind
direction
speed
knots
gust
knots
rain 1hr
in
rain 24hr
in
rain mn
in
humidity
%
barometer
mb
20260506200929 60 35 3.5 7.0 0.00 0.03 0.03 77 1015.9
20260506200425 60 25 4.3 5.2 0.00 0.03 0.03 77 1016.1
20260506195922 60 25 3.5 6.1 0.00 0.03 0.03 78 1016.1
20260506195419 60 313 4.3 7.0 0.00 0.03 0.03 77 1016.2
20260506194915 60 25 2.6 8.7 0.00 0.03 0.03 79 1016.0
20260506194412 59 291 4.3 7.0 0.00 0.03 0.03 78 1016.1
20260506193909 59 14 4.3 6.1 0.00 0.03 0.03 80 1016.2
20260506193406 59 10 6.1 7.8 0.00 0.03 0.03 80 1016.3
20260506192903 58 22 6.1 7.0 0.00 0.03 0.03 81 1016.5
20260506192400 58 23 3.5 5.2 0.00 0.03 0.03 81 1016.6
20260506191857 57 357 3.5 8.7 0.00 0.03 0.03 81 1016.3
20260506191353 57 2 5.2 7.8 0.00 0.03 0.03 82 1016.4
20260506190850 57 18 4.3 7.8 0.00 0.03 0.03 82 1016.6
20260506190346 57 295 2.6 6.1 0.00 0.03 0.03 83 1016.7
20260506185843 56 325 2.6 8.7 0.00 0.03 0.03 83 1016.6
20260506185340 56 299 4.3 5.2 0.00 0.03 0.03 83 1016.9
20260506184837 56 316 3.5 4.3 0.00 0.03 0.03 84 1016.9
20260506184334 56 336 3.5 7.8 0.00 0.03 0.03 84 1017.0
20260506183832 56 359 2.6 4.3 0.00 0.03 0.03 84 1017.3
20260506183327 56 316 3.5 5.2 0.00 0.03 0.03 84 1017.3
20260506182824 56 349 3.5 4.3 0.00 0.03 0.03 84 1017.3
20260506182321 56 13 2.6 6.1 0.00 0.03 0.03 84 1017.0
20260506181819 56 23 3.5 4.3 0.00 0.03 0.03 85 1017.2
20260506181316 56 316 3.5 7.0 0.00 0.03 0.03 85 1017.3
20260506180813 56 25 1.7 4.3 0.00 0.03 0.03 85 1017.3
20260506180310 56 41 7.0 7.8 0.00 0.03 0.03 85 1017.5
20260506175806 56 258 3.5 6.1 0.00 0.03 0.03 85 1017.0
20260506175306 55 22 3.5 5.2 0.00 0.03 0.03 85 1017.1
20260506174800 55 5 6.1 7.8 0.00 0.03 0.03 85 1016.8
20260506174257 55 1 6.1 6.1 0.00 0.03 0.03 86 1016.4
20260506173755 55 307 7.0 10.4 0.00 0.03 0.03 86 1015.9
20260506173252 55 323 4.3 10.4 0.00 0.03 0.03 86 1015.6
20260506172748 55 319 3.5 8.7 0.00 0.03 0.03 86 1016.0
20260506172245 55 353 3.5 7.8 0.00 0.03 0.03 86 1015.4
20260506171743 56 1 3.5 7.8 0.00 0.03 0.03 86 1015.9
20260506171240 56 334 1.7 8.7 0.00 0.03 0.03 86 1015.6
20260506170738 55 344 4.3 9.6 0.00 0.03 0.03 86 1015.8
20260506170233 55 354 6.1 11.3 0.00 0.03 0.03 86 1015.6
20260506165732 55 359 5.2 8.7 0.00 0.03 0.03 86 1016.1
20260506165229 55 323 1.7 8.7 0.00 0.03 0.03 87 1016.4
20260506164726 55 14 4.3 7.0 0.00 0.03 0.03 87 1016.5
20260506164223 55 18 3.5 7.0 0.00 0.03 0.03 87 1016.2
20260506163719 55 359 3.5 6.1 0.00 0.03 0.03 88 1016.3
20260506163214 55 13 4.3 9.6 0.00 0.03 0.03 88 1016.5
20260506162711 55 3 4.3 6.1 0.00 0.03 0.03 88 1016.3
20260506162208 55 0 4.3 7.0 0.00 0.03 0.03 88 1016.2
20260506161705 55 19 2.6 3.5 0.00 0.03 0.03 88 1016.3
20260506161202 55 4 2.6 5.2 0.00 0.03 0.03 88 1016.3
20260506160700 55 43 2.6 5.2 0.00 0.03 0.03 88 1016.5
20260506160157 55 17 4.3 6.1 0.00 0.03 0.03 88 1016.0
20260506155655 55 14 5.2 11.3 0.00 0.03 0.03 88 1016.0
20260506155152 54 349 5.2 5.2 0.02 0.03 0.03 90 1015.9
20260506153254 54 339 2.6 7.0 0.02 0.03 0.03 91 1015.5
20260506152750 53 20 3.5 9.6 0.00 0.02 0.02 91 1015.4
20260506152248 53 24 3.5 6.1 0.00 0.02 0.02 91 1015.7
20260506151747 53 15 7.0 11.3 0.00 0.02 0.02 91 1014.9
20260506151243 53 39 7.0 7.8 0.02 0.02 0.02 91 1015.5
20260506150739 53 15 4.3 9.6 0.02 0.02 0.02 91 1015.5
20260506150237 53 333 0.9 4.3 0.00 0.02 0.02 90 1017.1
20260506145734 53 254 2.6 4.3 0.00 0.02 0.02 90 1016.9
20260506145230 53 341 6.1 6.1 0.00 0.02 0.02 90 1016.8
20260506144728 53 310 2.6 8.7 0.00 0.02 0.02 90 1017.0
20260506144225 53 334 7.8 7.8 0.00 0.02 0.02 89 1017.2
20260506143722 53 298 0.9 3.5 0.02 0.02 0.02 89 1017.5
20260506143220 53 357 2.6 6.1 0.02 0.02 0.02 88 1016.7
20260506142718 53 300 2.6 3.5 0.05 0.02 0.02 87 1016.9
20260506142216 53 344 9.6 10.4 0.05 0.02 0.02 86 1016.5
20260506141714 54 308 1.7 7.0 0.00 0.01 0.01 84 1017.4
20260506141212 54 275 4.3 5.2 0.00 0.01 0.01 83 1017.6
20260506140709 54 344 4.3 7.0 0.05 0.01 0.01 83 1017.7
20260506140206 54 287 4.3 7.8 0.05 0.01 0.01 83 1017.6
20260506135702 54 295 4.3 7.0 0.00 0.00 0.00 83 1016.3
20260506135159 54 307 4.3 7.8 0.00 0.00 0.00 82 1015.6
20260506134655 54 358 6.1 10.4 0.00 0.00 0.00 82 1014.8
20260506134151 55 348 4.3 11.3 0.00 0.00 0.00 81 1015.8
20260506133649 55 335 3.5 10.4 0.00 0.00 0.00 81 1015.6
20260506133146 55 325 4.3 8.7 0.00 0.00 0.00 81 1015.9
20260506132643 55 327 3.5 11.3 0.00 0.00 0.00 81 1016.1
20260506132140 55 316 3.5 7.8 0.00 0.00 0.00 81 1015.9
20260506131638 55 329 4.3 7.8 0.00 0.00 0.00 81 1015.7
20260506131133 56 292 2.6 7.8 0.00 0.00 0.00 81 1015.5
20260506130630 56 310 5.2 9.6 0.00 0.00 0.00 80 1015.4
20260506130128 56 339 5.2 6.1 0.00 0.00 0.00 80 1015.3
20260506125626 56 22 7.0 7.8 0.00 0.00 0.00 80 1014.8
20260506125123 57 358 4.3 9.6 0.00 0.00 0.00 80 1014.9
20260506124621 57 355 6.1 7.8 0.00 0.00 0.00 80 1014.6
20260506124119 57 273 4.3 7.8 0.00 0.00 0.00 79 1014.5
20260506123616 57 353 4.3 9.6 0.00 0.00 0.00 79 1014.3
20260506123115 57 293 3.5 7.8 0.00 0.00 0.00 79 1014.5
20260506122611 58 275 6.1 8.7 0.00 0.00 0.00 79 1014.4
20260506122109 58 352 6.1 7.8 0.00 0.00 0.00 78 1014.3
20260506121606 58 351 6.1 7.0 0.00 0.00 0.00 79 1014.2
20260506121102 58 309 6.1 7.0 0.00 0.00 0.00 79 1014.2
20260506120601 58 338 2.6 7.0 0.00 0.00 0.00 78 1013.9
20260506120057 58 22 7.0 9.6 0.00 0.00 0.00 78 1013.9
20260506115556 58 13 1.7 7.0 0.00 0.00 0.00 78 1014.0
20260506115054 58 326 2.6 11.3 0.00 0.00 0.00 78 1014.0
20260506114551 58 25 3.5 5.2 0.00 0.00 0.00 78 1013.9
20260506114049 58 350 7.0 10.4 0.00 0.00 0.00 78 1014.1
20260506113546 59 38 7.8 8.7 0.00 0.00 0.00 77 1013.9
20260506113043 59 305 3.5 6.1 0.00 0.00 0.00 78 1014.1
20260506112540 59 16 2.6 6.1 0.00 0.00 0.00 78 1013.8
20260506112037 59 358 4.3 8.7 0.00 0.00 0.00 78 1013.9
20260506111535 59 22 3.5 6.1 0.00 0.00 0.00 79 1013.4
20260506111032 59 315 5.2 6.1 0.00 0.00 0.00 79 1013.4
20260506110530 59 325 2.6 8.7 0.00 0.00 0.00 79 1013.4
20260506110027 59 349 3.5 7.8 0.00 0.00 0.00 79 1013.6
20260506105523 59 343 5.2 6.1 0.00 0.00 0.00 79 1013.2
20260506105020 59 352 3.5 6.1 0.00 0.00 0.00 80 1013.0
20260506104518 59 301 3.5 4.3 0.00 0.00 0.00 80 1013.1
20260506104016 59 2 3.5 7.0 0.00 0.00 0.00 79 1013.0
20260506103513 59 34 2.6 5.2 0.00 0.00 0.00 79 1012.8
20260506103010 59 357 2.6 5.2 0.00 0.00 0.00 79 1012.8
20260506102508 59 356 3.5 7.0 0.00 0.00 0.00 79 1012.6
20260506102005 59 321 3.5 5.2 0.00 0.00 0.00 78 1012.7
20260506101501 59 349 4.3 7.8 0.00 0.00 0.00 78 1012.5
20260506100959 60 322 4.3 6.1 0.00 0.00 0.00 79 1012.5
20260506100457 60 309 5.2 9.6 0.00 0.00 0.00 80 1012.5
20260506095955 60 336 5.2 7.8 0.00 0.00 0.00 81 1012.2
20260506095453 60 334 3.5 7.8 0.00 0.00 0.00 81 1012.3
20260506094949 60 12 1.7 3.5 0.00 0.00 0.00 81 1012.3
20260506094448 60 2 2.6 6.1 0.00 0.00 0.00 81 1012.1
20260506093945 60 355 1.7 4.3 0.00 0.00 0.00 81 1012.1
20260506093443 60 351 2.6 6.1 0.00 0.00 0.00 81 1011.9
20260506092940 60 23 5.2 7.8 0.00 0.00 0.00 81 1011.8
20260506092438 61 26 3.5 5.2 0.00 0.00 0.00 81 1011.7
20260506091934 61 17 3.5 8.7 0.00 0.00 0.00 81 1011.8
20260506091433 61 308 2.6 5.2 0.00 0.00 0.00 81 1011.8
20260506090929 61 358 2.6 4.3 0.00 0.00 0.00 81 1011.8
20260506090427 61 332 1.7 7.0 0.00 0.00 0.00 81 1012.0
20260506085923 61 326 1.7 4.3 0.00 0.00 0.00 81 1012.1
20260506085420 61 25 3.5 6.1 0.00 0.00 0.00 81 1011.8
20260506084917 61 19 4.3 8.7 0.00 0.00 0.00 81 1011.9
20260506084414 61 285 4.3 6.1 0.00 0.00 0.00 81 1012.0
20260506083910 62 357 3.5 7.8 0.00 0.00 0.00 80 1011.8
20260506083408 62 5 3.5 7.8 0.00 0.00 0.00 81 1011.5
20260506082905 62 300 2.6 4.3 0.00 0.00 0.00 81 1011.8
20260506082401 62 297 6.1 6.1 0.00 0.00 0.00 80 1011.7
20260506081857 62 9 2.6 4.3 0.00 0.00 0.00 81 1011.6
20260506081355 62 12 1.7 5.2 0.00 0.00 0.00 80 1011.5
20260506080853 62 11 5.2 7.0 0.00 0.00 0.00 80 1011.7
20260506080349 62 22 2.6 3.5 0.00 0.00 0.00 80 1011.9
20260506073333 63 16 2.6 3.5 0.00 0.00 0.00 80 1011.3
20260506072830 63 32 2.6 5.2 0.00 0.00 0.00 80 1011.4
20260506072328 63 29 4.3 5.2 0.00 0.00 0.00 80 1011.2
20260506071825 63 34 2.6 7.0 0.00 0.00 0.00 80 1011.4
20260506071323 63 16 0.9 10.4 0.00 0.00 0.00 79 1011.4
20260506070820 63 36 2.6 8.7 0.00 0.00 0.00 79 1011.5
20260506070317 63 49 5.2 7.8 0.00 0.00 0.00 79 1011.0
20260506062254 64 30 3.5 4.3 0.00 0.00 0.00 78 1011.2
20260506061750 64 65 2.6 3.5 0.00 0.00 0.00 78 1011.1
20260506061247 64 3 0.9 4.3 0.00 0.00 0.00 78 1011.3
20260506060745 64 344 2.6 5.2 0.00 0.00 0.00 77 1011.1
20260506060243 64 335 1.7 4.3 0.00 0.00 0.00 77 1011.2
20260506051214 66 357 4.3 7.0 0.00 0.00 0.00 75 1011.2
20260506050713 66 285 3.5 6.1 0.00 0.00 0.00 75 1011.3
20260506050210 67 17 2.6 5.2 0.00 0.00 0.00 75 1011.4
20260506044701 67 45 4.3 6.1 0.00 0.00 0.00 74 1011.1
20260506044157 67 17 2.6 9.6 0.00 0.00 0.00 74 1011.0
20260506043654 67 24 3.5 5.2 0.00 0.00 0.00 74 1011.0
20260506043152 67 50 3.5 5.2 0.00 0.00 0.00 73 1011.1
20260506042651 68 40 4.3 4.3 0.00 0.00 0.00 73 1010.9
20260506042149 68 345 1.7 6.1 0.00 0.00 0.00 73 1011.0
20260506041652 68 16 2.6 6.1 0.00 0.00 0.00 72 1011.0
20260506041143 68 311 6.1 8.7 0.00 0.00 0.00 72 1011.1
20260506040642 68 7 3.5 11.3 0.00 0.00 0.00 72 1011.1
20260506040138 68 353 6.1 7.8 0.00 0.00 0.00 71 1011.1
20260506035635 68 282 3.5 7.8 0.00 0.00 0.00 72 1011.2
20260506035131 68 0 5.2 10.4 0.00 0.00 0.00 71 1010.9
20260506034629 69 310 5.2 6.1 0.00 0.00 0.00 71 1010.9
20260506034126 69 307 4.3 8.7 0.00 0.00 0.00 71 1010.8
20260506033623 69 283 5.2 7.8 0.00 0.00 0.00 71 1010.6
20260506033120 69 339 3.5 10.4 0.00 0.00 0.00 70 1010.4
20260506032617 69 287 7.0 11.3 0.00 0.00 0.00 71 1010.5
20260506032114 70 11 2.6 8.7 0.00 0.00 0.00 72 1010.3
20260506031611 70 272 1.7 6.1 0.00 0.00 0.00 72 1009.9
20260506031108 70 310 5.2 7.0 0.00 0.00 0.00 72 1009.8
20260506030607 71 292 6.1 7.8 0.00 0.00 0.00 72 1009.7
20260506030103 71 304 3.5 7.8 0.00 0.00 0.00 71 1009.6
20260506025600 71 9 5.2 7.8 0.00 0.00 0.00 71 1009.4
20260506025056 71 54 3.5 9.6 0.00 0.00 0.00 70 1009.2
20260506024554 71 40 6.1 7.0 0.00 0.00 0.00 70 1009.2
20260506024050 72 358 5.2 9.6 0.00 0.00 0.00 69 1009.3
20260506023546 72 11 5.2 7.0 0.00 0.00 0.00 69 1009.2
20260506023044 72 24 7.8 8.7 0.00 0.00 0.00 68 1009.0
20260506022541 73 328 9.6 9.6 0.00 0.00 0.00 68 1008.9
20260506022038 73 359 3.5 9.6 0.00 0.00 0.00 67 1008.6
20260506021536 73 15 4.3 11.3 0.00 0.00 0.00 67 1008.5
20260506021033 73 349 5.2 9.6 0.00 0.00 0.00 68 1008.5
20260506020530 73 8 2.6 10.4 0.00 0.00 0.00 68 1008.7
20260506020027 73 343 3.5 6.1 0.00 0.00 0.00 68 1008.4
20260506015525 74 308 5.2 6.1 0.00 0.00 0.00 67 1008.1
20260506015022 74 5 4.3 11.3 0.00 0.00 0.00 67 1008.1
20260506014519 74 343 3.5 8.7 0.00 0.00 0.00 67 1007.9
20260506014015 75 351 4.3 6.1 0.00 0.00 0.00 66 1007.6
20260506013513 75 348 4.3 7.8 0.00 0.00 0.00 66 1007.5
20260506013010 75 357 4.3 10.4 0.00 0.00 0.00 66 1007.4
20260506012506 75 353 6.1 7.8 0.00 0.00 0.00 66 1007.1
20260506012003 76 332 3.5 7.8 0.00 0.00 0.00 66 1007.1
20260506011500 76 329 5.2 7.8 0.00 0.00 0.00 65 1007.1
20260506010956 77 356 7.0 7.8 0.00 0.00 0.00 64 1007.0
20260506010456 77 354 4.3 7.8 0.00 0.00 0.00 63 1006.9
20260506005951 78 349 5.2 10.4 0.00 0.00 0.00 63 1007.1
20260506005449 78 16 3.5 6.1 0.00 0.00 0.00 63 1007.0
20260506004944 78 17 3.5 5.2 0.00 0.00 0.00 63 1006.7
20260506004442 79 3 4.3 9.6 0.00 0.00 0.00 62 1006.8
20260506003938 80 5 6.1 10.4 0.00 0.00 0.00 62 1006.4
20260506003435 81 0 4.3 8.7 0.00 0.00 0.00 62 1006.4
20260506002931 81 323 6.1 9.6 0.00 0.00 0.00 61 1006.5
20260506002427 82 13 6.1 7.0 0.00 0.00 0.00 62 1006.3
20260506001923 83 4 6.1 8.7 0.00 0.00 0.00 60 1006.3
20260506001420 84 15 8.7 10.4 0.00 0.00 0.00 59 1006.2
20260506000918 85 324 3.5 10.4 0.00 0.00 0.00 56 1006.4
20260506000416 87 349 6.1 9.6 0.00 0.00 0.00 53 1006.3
20260505235912 89 297 3.5 9.6 0.00 0.00 0.00 49 1006.1
20260505235410 91 275 1.7 1.7 0.00 0.00 0.00 50 1005.9
20260505234906 91 190 0.0 2.6 0.00 0.00 0.00 49 1005.5
20260505234404 91 277 0.0 2.6 0.00 0.00 0.00 49 1005.5
20260505233900 92 154 4.3 4.3 0.00 0.00 0.00 48 1005.3
20260505233358 91 188 3.5 3.5 0.00 0.00 0.00 48 1005.3
20260505232855 92 160 1.7 1.7 0.00 0.00 0.00 49 1005.4
20260505232353 92 109 2.6 4.3 0.00 0.00 0.00 48 1005.2
20260505231850 91 222 1.7 4.3 0.00 0.00 0.00 49 1005.4
20260505231347 91 158 2.6 7.8 0.00 0.00 0.00 48 1005.2
20260505230845 92 206 2.6 3.5 0.00 0.00 0.00 48 1005.2
20260505230342 93 179 2.6 4.3 0.00 0.00 0.00 47 1005.2
20260505225839 93 194 2.6 5.2 0.00 0.00 0.00 46 1005.2
20260505225336 94 151 1.7 6.1 0.00 0.00 0.00 46 1005.3
20260505224831 95 183 1.7 4.3 0.00 0.00 0.00 44 1005.3
20260505224329 96 201 1.7 2.6 0.00 0.00 0.00 41 1005.2
20260505223826 96 295 0.0 2.6 0.00 0.00 0.00 40 1005.2
20260505223323 95 0 0.0 2.6 0.00 0.00 0.00 41 1005.1
20260505222818 94 176 1.7 3.5 0.00 0.00 0.00 44 1005.1
20260505222315 94 276 2.6 3.5 0.00 0.00 0.00 42 1005.3
20260505221813 94 249 0.9 4.3 0.00 0.00 0.00 42 1005.3
20260505221309 94 173 1.7 3.5 0.00 0.00 0.00 41 1005.2
20260505220806 94 164 5.2 6.1 0.00 0.00 0.00 39 1005.2
20260505220303 94 168 3.5 5.2 0.00 0.00 0.00 41 1005.0
20260505215801 94 255 2.6 4.3 0.00 0.00 0.00 44 1005.2
20260505215259 95 209 1.7 4.3 0.00 0.00 0.00 44 1005.3
20260505214756 94 153 1.7 6.1 0.00 0.00 0.00 42 1005.1
20260505214253 96 296 2.6 3.5 0.00 0.00 0.00 42 1005.3
20260505213751 95 247 1.7 4.3 0.00 0.00 0.00 43 1005.2
20260505213248 94 232 1.7 2.6 0.00 0.00 0.00 44 1005.3
20260505212743 94 208 2.6 4.3 0.00 0.00 0.00 42 1005.3
20260505212241 95 170 0.9 1.7 0.00 0.00 0.00 44 1005.3
20260505211738 93 168 0.9 4.3 0.00 0.00 0.00 45 1005.5
20260505211235 94 260 4.3 4.3 0.00 0.00 0.00 44 1005.2
20260505210732 94 308 1.7 4.3 0.00 0.00 0.00 45 1005.3
20260505210228 94 269 0.0 3.5 0.00 0.00 0.00 45 1005.7
20260505205726 94 272 2.6 4.3 0.00 0.00 0.00 46 1005.7
20260505205224 94 202 4.3 5.2 0.00 0.00 0.00 44 1005.6
20260505204720 94 214 0.9 4.3 0.00 0.00 0.00 43 1005.7
20260505204218 93 226 4.3 5.2 0.00 0.00 0.00 45 1006.0
20260505203715 95 172 4.3 5.2 0.00 0.00 0.00 45 1006.1
20260505203212 93 220 3.5 6.1 0.00 0.00 0.00 48 1005.9
20260505202708 93 241 1.7 6.1 0.00 0.00 0.00 46 1005.8
20260505202204 93 196 2.6 7.0 0.00 0.00 0.00 45 1006.0
20260505201700 93 226 1.7 4.3 0.00 0.00 0.00 47 1006.2